Time,TemperatureF,DewpointF,PressureIn,WindDirection,WindDirectionDegrees,WindSpeedMPH,WindSpeedGustMPH,Humidity,HourlyPrecipIn,Conditions,Clouds,dailyrainin,SoftwareType,DateUTC
2013-03-29 00:00:00,46.2,34.3,29.91,East,89,2.0,4.0,63,0.00,CLR,,0.00,WeatherDisplay:10.37,2013-03-29 05:00:00,
2013-03-29 00:30:00,44.8,33.0,29.89,East,89,0.0,3.0,63,0.00,CLR,,0.00,WeatherDisplay:10.37,2013-03-29 05:30:00,
2013-03-29 01:00:00,42.6,32.0,29.91,East,89,0.0,3.0,66,0.00,CLR,,0.00,WeatherDisplay:10.37,2013-03-29 06:00:00,
2013-03-29 01:30:00,41.1,31.0,29.93,East,89,1.0,3.0,67,0.00,CLR,,0.00,WeatherDisplay:10.37,2013-03-29 06:30:00,
2013-03-29 02:00:00,41.1,31.3,29.93,East,89,2.0,3.0,68,0.00,CLR,,0.00,WeatherDisplay:10.37,2013-03-29 07:00:00,
2013-03-29 02:30:00,40.5,30.8,29.92,East,89,0.0,2.0,68,0.00,CLR,,0.00,WeatherDisplay:10.37,2013-03-29 07:30:00,
2013-03-29 03:00:00,39.6,29.9,29.93,East,89,0.0,1.0,68,0.00,CLR,,0.00,WeatherDisplay:10.37,2013-03-29 08:00:00,
2013-03-29 03:30:00,39.1,29.1,29.94,East,89,0.0,3.0,67,0.00,CLR,,0.00,WeatherDisplay:10.37,2013-03-29 08:30:00,
2013-03-29 04:00:00,38.0,28.4,29.93,East,89,1.0,2.0,68,0.00,CLR,,0.00,WeatherDisplay:10.37,2013-03-29 09:00:00,
2013-03-29 04:30:00,37.2,27.2,29.95,East,89,2.0,3.0,67,0.00,CLR,,0.00,WeatherDisplay:10.37,2013-03-29 09:30:00,
2013-03-29 05:00:00,36.5,26.6,29.95,East,89,1.0,3.0,67,0.00,CLR,,0.00,WeatherDisplay:10.37,2013-03-29 10:00:00,
2013-03-29 05:30:00,35.8,27.0,29.96,East,89,0.0,1.0,70,0.00,CLR,,0.00,WeatherDisplay:10.37,2013-03-29 10:30:00,
2013-03-29 06:00:00,34.7,26.3,29.96,East,89,0.0,1.0,71,0.00,CLR,,0.00,WeatherDisplay:10.37,2013-03-29 11:00:00,
2013-03-29 06:30:00,34.3,25.9,29.98,East,89,0.0,1.0,71,0.00,CLR,,0.00,WeatherDisplay:10.37,2013-03-29 11:30:00,
2013-03-29 07:00:00,35.2,26.0,30.00,East,89,0.0,3.0,69,0.00,CLR,,0.00,WeatherDisplay:10.37,2013-03-29 12:00:00,
2013-03-29 07:30:00,35.3,25.5,30.01,East,89,0.0,3.0,67,0.00,CLR,,0.00,WeatherDisplay:10.37,2013-03-29 12:30:00,
2013-03-29 08:00:00,34.4,25.3,30.03,East,89,0.0,0.0,69,0.00,CLR,,0.00,WeatherDisplay:10.37,2013-03-29 13:00:00,
2013-03-29 08:30:00,36.2,26.7,30.05,East,89,0.0,0.0,68,0.00,CLR,,0.00,WeatherDisplay:10.37,2013-03-29 13:30:00,
2013-03-29 09:00:00,43.9,32.1,30.00,East,89,0.0,0.0,63,0.00,CLR,,0.00,WeatherDisplay:10.37,2013-03-29 14:00:00,
2013-03-29 09:30:00,55.5,32.7,29.96,ESE,112,0.0,5.0,42,0.00,CLR,,0.00,WeatherDisplay:10.37,2013-03-29 14:30:00,
2013-03-29 10:00:00,63.5,27.0,29.92,SSE,159,1.0,5.0,25,0.00,CLR,,0.00,WeatherDisplay:10.37,2013-03-29 15:00:00,
2013-03-29 10:30:00,64.8,25.0,29.97,SSW,197,1.0,6.0,22,0.00,CLR,,0.00,WeatherDisplay:10.37,2013-03-29 15:30:00,
2013-03-29 11:00:00,66.3,24.0,29.96,West,267,0.0,6.0,20,0.00,CLR,,0.00,WeatherDisplay:10.37,2013-03-29 16:00:00,
2013-03-29 11:30:00,66.3,21.5,29.99,West,276,2.0,7.0,18,0.00,CLR,,0.00,WeatherDisplay:10.37,2013-03-29 16:30:00,
2013-03-29 12:00:00,66.4,21.6,29.99,West,279,3.0,7.0,18,0.00,CLR,,0.00,WeatherDisplay:10.37,2013-03-29 17:00:00,
2013-03-29 12:31:00,67.8,21.4,30.00,WNW,295,2.0,10.0,17,0.00,CLR,,0.00,WeatherDisplay:10.37,2013-03-29 17:31:00,
2013-03-29 13:01:00,69.6,22.8,29.98,NW,304,1.0,8.0,17,0.00,CLR,,0.00,WeatherDisplay:10.37,2013-03-29 18:01:00,
2013-03-29 13:31:00,69.1,23.8,29.99,West,277,2.0,10.0,18,0.00,CLR,,0.00,WeatherDisplay:10.37,2013-03-29 18:31:00,
2013-03-29 14:01:00,68.8,22.2,29.97,WSW,253,0.0,6.0,17,0.00,CLR,,0.00,WeatherDisplay:10.37,2013-03-29 19:01:00,
2013-03-29 15:01:00,70.1,21.8,29.96,WSW,246,1.0,8.0,16,0.00,CLR,,0.00,WeatherDisplay:10.37,2013-03-29 20:01:00,
2013-03-29 16:01:00,73.8,23.2,29.90,WSW,254,2.0,16.0,15,0.00,CLR,,0.00,WeatherDisplay:10.37,2013-03-29 21:01:00,
2013-03-29 16:31:00,75.4,22.8,29.91,NW,323,6.0,13.0,14,0.00,CLR,,0.00,WeatherDisplay:10.37,2013-03-29 21:31:00,
2013-03-29 17:01:00,73.0,20.9,29.91,SW,221,7.0,14.0,14,0.00,CLR,,0.00,WeatherDisplay:10.37,2013-03-29 22:01:00,
2013-03-29 17:31:00,74.0,20.0,29.91,NW,307,5.0,12.0,13,0.00,CLR,,0.00,WeatherDisplay:10.37,2013-03-29 22:31:00,
2013-03-29 18:01:00,73.0,19.2,29.92,NW,308,3.0,16.0,13,0.00,CLR,,0.00,WeatherDisplay:10.37,2013-03-29 23:01:00,
2013-03-29 21:01:00,62.2,18.1,29.90,West,261,0.0,3.0,18,0.00,CLR,,0.00,WeatherDisplay:10.37,2013-03-30 02:01:00,
2013-03-29 21:31:00,54.4,17.3,29.88,West,261,0.0,4.0,23,0.00,CLR,,0.00,WeatherDisplay:10.37,2013-03-30 02:31:00,
2013-03-29 22:31:00,49.1,17.3,29.92,West,261,0.0,3.0,28,0.00,CLR,,0.00,WeatherDisplay:10.37,2013-03-30 03:31:00,
2013-03-29 23:00:00,47.9,16.3,29.93,West,261,0.0,3.0,28,0.00,CLR,,0.00,WeatherDisplay:10.37,2013-03-30 04:00:00,
2013-03-29 23:30:00,45.8,16.1,29.95,West,261,0.0,1.0,30,0.00,CLR,,0.00,WeatherDisplay:10.37,2013-03-30 04:30:00,